Simultaneous Nadir Overpasses (SNOs) Predictions

Prediction of SNOs between METOP-B and TERRA Satellite Orbit:

Table of predicted SNOs for the next 14.0 days since TLE Epoch: 2/20/2016
Index Date (METOP-B) Time (METOP-B) Lat,Lon (METOP-B) SZA (METOP-B ) Date (TERRA) Time (TERRA) Lat,Lon (TERRA) SZA (TERRA ) Distance(km) Time Diff (sec)
1 02/20/2016 14:42:25 81.36, 7.46 94.74 02/20/2016 14:43:05 81.36, 7.31 94.74 2.41 40
2 02/20/2016 15:33:05 -81.36, 174.98 85.25 02/20/2016 15:32:32 -81.35, 174.79 85.30 3.36 33
3 02/23/2016 10:16:45 81.35, 73.57 93.70 02/23/2016 10:17:15 81.35, 73.71 93.73 2.30 30
4 02/23/2016 11:07:24 -81.36,-118.49 86.25 02/23/2016 11:06:41 -81.37,-118.41 86.25 1.56 43
5 02/26/2016 05:51:05 81.35, 140.03 92.68 02/26/2016 05:51:25 81.35, 140.04 92.69 0.75 20
6 02/
